Location: Bothwell
(42.3833°S, 147.0000°E)
Time: 00:24:28
(UTC+10:00)

NOAA 18 - Visible Passes

Search period start: 29 September 2023 00:00
Search period end: 09 October 2023 01:00
Orbit: 838 x 860 km, 98.9° (Epoch: 28 September)

Date Brightness Start Highest point End Pass type
(mag) Time Alt. Az. Time Alt. Az. Time Alt. Az.
29 Sep 7.8 23:43:17 10° S 23:44:13 15° S 23:44:13 15° S visible
30 Sep 7.8 23:30:52 10° S 23:31:51 15° S 23:31:51 15° S visible
02 Oct 7.7 00:18:31 10° SSE 00:19:30 16° SSE 00:19:30 16° SSE visible
03 Oct 7.7 00:06:13 10° SSE 00:07:08 15° SSE 00:07:08 15° SSE visible
03 Oct 7.9 01:48:29 10° SSW 01:49:07 12° SSW 01:49:07 12° SSW visible
03 Oct 7.7 23:53:57 10° SSE 23:54:47 15° SSE 23:54:47 15° SSE visible
04 Oct 7.8 01:35:41 10° SSW 01:36:46 14° SSW 01:36:46 14° SSW visible
04 Oct 7.7 23:41:44 10° SSE 23:42:26 14° SSE 23:42:26 14° SSE visible
05 Oct 7.7 01:23:01 10° S 01:24:24 16° SSW 01:24:24 16° SSW visible
05 Oct 7.7 23:29:35 10° SSE 23:30:04 12° SSE 23:30:04 12° SSE visible
06 Oct 7.6 01:10:27 10° S 01:12:03 18° SSW 01:12:03 18° SSW visible
06 Oct 7.8 23:17:31 10° SE 23:17:43 11° SE 23:17:43 11° SE visible
07 Oct 7.5 00:57:57 10° S 00:59:41 19° S 00:59:41 19° S visible
08 Oct 7.4 00:45:29 10° S 00:47:20 21° S 00:47:20 21° S visible
09 Oct 7.4 00:33:04 10° S 00:34:58 22° S 00:34:58 22° S visible
